When you browse on this site, cookies collect data to enhance your experience and personalize the content and advertising you see.
Visit our Privacy Policy to learn more. By continuing to use the site, you agree to this use of cookies and data.

Hourly Weather Stavys'ke

Today, 20 September, Sunday

Time Temperature Precipitation Wind Pressure Humidity
00:00 +9°C° 0 mm 3 mps 755 mmHg 79%
01:00 +9°C° 0 mm 3 mps 755 mmHg 84%
02:00 +9°C° 0 mm 2 mps 755 mmHg 92%
03:00 +9°C° 0 mm 2 mps 755 mmHg 93%
04:00 +8°C° 0 mm 2 mps 755 mmHg 94%
05:00 +8°C° 0 mm 2 mps 755 mmHg 95%
06:00 +10°C° 0 mm 2 mps 755 mmHg 89%
07:00 +12°C° 0 mm 2 mps 756 mmHg 83%
08:00 +13°C° 0 mm 2 mps 756 mmHg 77%
09:00 +13°C° 0 mm 3 mps 756 mmHg 67%
10:00 +16°C° 0 mm 3 mps 756 mmHg 57%
11:00 +18°C° 0 mm 3 mps 757 mmHg 47%
12:00 +18°C° 0 mm 3 mps 757 mmHg 45%
13:00 +19°C° 0 mm 3 mps 757 mmHg 42%
14:00 +19°C° 0 mm 2 mps 756 mmHg 39%
15:00 +18°C° 0 mm 2 mps 756 mmHg 43%
16:00 +17°C° 0 mm 2 mps 756 mmHg 47%
17:00 +18°C° 0 mm 1 mps 756 mmHg 51%
18:00 +15°C° 0 mm 1 mps 756 mmHg 55%
19:00 +13°C° 0 mm 1 mps 757 mmHg 60%
20:00 +12°C° 0 mm 1 mps 757 mmHg 64%
21:00 +11°C° 0 mm 1 mps 757 mmHg 66%
22:00 +11°C° 0 mm 1 mps 757 mmHg 68%
23:00 +10°C° 0 mm 1 mps 757 mmHg 70%

Tomorrow, 21 September, Monday

Time Temperature Precipitation Wind Pressure Humidity
00:00 +9°C° 0 mm 2 mps 758 mmHg 71%
01:00 +9°C° 0 mm 2 mps 758 mmHg 72%
02:00 +8°C° 0 mm 2 mps 758 mmHg 73%
03:00 +8°C° 0 mm 2 mps 757 mmHg 74%
04:00 +8°C° 0 mm 2 mps 757 mmHg 75%
05:00 +7°C° 0 mm 2 mps 757 mmHg 76%
06:00 +9°C° 0 mm 2 mps 757 mmHg 71%
07:00 +12°C° 0 mm 2 mps 758 mmHg 66%
08:00 +13°C° 0 mm 2 mps 758 mmHg 61%
09:00 +15°C° 0 mm 2 mps 758 mmHg 55%
10:00 +17°C° 0 mm 2 mps 758 mmHg 49%
11:00 +19°C° 0 mm 2 mps 758 mmHg 43%
12:00 +19°C° 0 mm 2 mps 757 mmHg 41%
13:00 +20°C° 0 mm 2 mps 757 mmHg 39%
14:00 +21°C° 0 mm 2 mps 757 mmHg 37%
15:00 +20°C° 0 mm 2 mps 757 mmHg 41%
16:00 +19°C° 0 mm 2 mps 756 mmHg 45%
17:00 +19°C° 0 mm 1 mps 756 mmHg 49%
18:00 +18°C° 0 mm 1 mps 756 mmHg 52%
19:00 +15°C° 0 mm 1 mps 756 mmHg 54%
20:00 +14°C° 0 mm 1 mps 756 mmHg 57%
21:00 +13°C° 0 mm 1 mps 756 mmHg 57%
22:00 +13°C° 0 mm 1 mps 757 mmHg 57%
23:00 +12°C° 0 mm 1 mps 757 mmHg 58%

Day after tomorrow, 22 September, Tuesday

Time Temperature Precipitation Wind Pressure Humidity
00:00 +12°C° 0 mm 1 mps 757 mmHg 58%
01:00 +12°C° 0 mm 2 mps 756 mmHg 59%
02:00 +12°C° 0 mm 2 mps 756 mmHg 59%
03:00 +10°C° 0 mm 2 mps 756 mmHg 59%
04:00 +10°C° 0 mm 2 mps 756 mmHg 59%
05:00 +10°C° 0 mm 2 mps 756 mmHg 59%
06:00 +12°C° 0 mm 2 mps 756 mmHg 56%
07:00 +13°C° 0 mm 3 mps 756 mmHg 52%
08:00 +14°C° 0 mm 3 mps 756 mmHg 49%
09:00 +17°C° 0 mm 3 mps 756 mmHg 44%
10:00 +19°C° 0 mm 3 mps 756 mmHg 40%
11:00 +22°C° 0 mm 4 mps 756 mmHg 35%
12:00 +23°C° 0 mm 4 mps 756 mmHg 34%
13:00 +23°C° 0 mm 4 mps 756 mmHg 32%
14:00 +25°C° 0 mm 4 mps 755 mmHg 31%
15:00 +24°C° 0 mm 3 mps 755 mmHg 35%
16:00 +23°C° 0 mm 2 mps 755 mmHg 39%
17:00 +21°C° 0 mm 2 mps 754 mmHg 43%
18:00 +19°C° 0 mm 2 mps 754 mmHg 43%
19:00 +18°C° 0 mm 2 mps 754 mmHg 44%
20:00 +17°C° 0 mm 2 mps 755 mmHg 44%
21:00 +16°C° 0 mm 3 mps 754 mmHg 44%
22:00 +14°C° 0 mm 3 mps 754 mmHg 44%
23:00 +14°C° 0 mm 3 mps 754 mmHg 44%

23 September, Wednesday

Time Temperature Precipitation Wind Pressure Humidity
00:00 +13°C° 0 mm 3 mps 754 mmHg 45%
01:00 +13°C° 0 mm 3 mps 754 mmHg 45%
02:00 +12°C° 0 mm 3 mps 754 mmHg 46%
03:00 +12°C° 0 mm 3 mps 754 mmHg 46%
04:00 +12°C° 0 mm 2 mps 754 mmHg 46%
05:00 +12°C° 0 mm 2 mps 754 mmHg 45%
06:00 +13°C° 0 mm 2 mps 754 mmHg 44%
07:00 +13°C° 0 mm 3 mps 754 mmHg 42%
08:00 +16°C° 0 mm 3 mps 754 mmHg 41%
09:00 +18°C° 0 mm 3 mps 754 mmHg 37%
10:00 +20°C° 0 mm 3 mps 754 mmHg 32%
11:00 +24°C° 0 mm 3 mps 753 mmHg 28%
12:00 +23°C° 0 mm 4 mps 753 mmHg 27%
13:00 +25°C° 0 mm 4 mps 753 mmHg 25%
14:00 +26°C° 0 mm 4 mps 752 mmHg 23%
15:00 +24°C° 0 mm 3 mps 752 mmHg 27%
16:00 +22°C° 0 mm 3 mps 751 mmHg 31%
17:00 +21°C° 0 mm 2 mps 751 mmHg 35%
18:00 +19°C° 0 mm 2 mps 751 mmHg 34%
19:00 +18°C° 0 mm 3 mps 751 mmHg 33%
20:00 +17°C° 0 mm 3 mps 751 mmHg 32%
21:00 +16°C° 0 mm 3 mps 751 mmHg 31%
22:00 +16°C° 0 mm 3 mps 751 mmHg 30%
23:00 +16°C° 0 mm 3 mps 751 mmHg 30%

24 September, Thursday

Time Temperature Precipitation Wind Pressure Humidity
00:00 +14°C° 0 mm 3 mps 751 mmHg 30%
01:00 +14°C° 0 mm 3 mps 751 mmHg 30%
02:00 +13°C° 0 mm 3 mps 751 mmHg 30%
03:00 +13°C° 0 mm 3 mps 751 mmHg 31%
04:00 +13°C° 0 mm 3 mps 751 mmHg 31%
05:00 +13°C° 0 mm 3 mps 751 mmHg 32%
06:00 +14°C° 0 mm 3 mps 751 mmHg 33%
07:00 +16°C° 0 mm 3 mps 751 mmHg 34%
08:00 +17°C° 0 mm 3 mps 751 mmHg 35%
09:00 +19°C° 0 mm 3 mps 751 mmHg 35%
10:00 +21°C° 0 mm 3 mps 751 mmHg 35%
11:00 +24°C° 0 mm 3 mps 751 mmHg 35%
12:00 +25°C° 0 mm 3 mps 751 mmHg 33%
13:00 +26°C° 0 mm 3 mps 751 mmHg 32%
14:00 +27°C° 0 mm 3 mps 751 mmHg 31%
15:00 +26°C° 0 mm 3 mps 751 mmHg 34%
16:00 +24°C° 0 mm 2 mps 750 mmHg 37%
17:00 +23°C° 0 mm 2 mps 750 mmHg 40%
18:00 +21°C° 0 mm 2 mps 750 mmHg 42%
19:00 +19°C° 0 mm 2 mps 750 mmHg 43%
20:00 +18°C° 0 mm 2 mps 750 mmHg 44%
21:00 +17°C° 0 mm 2 mps 750 mmHg 44%
22:00 +17°C° 0 mm 2 mps 751 mmHg 43%
23:00 +16°C° 0 mm 3 mps 751 mmHg 42%

25 September, Friday

Time Temperature Precipitation Wind Pressure Humidity
00:00 +16°C° 0 mm 2 mps 750 mmHg 43%
01:00 +16°C° 0 mm 2 mps 750 mmHg 43%
02:00 +15°C° 0 mm 2 mps 750 mmHg 44%
03:00 +15°C° 0 mm 2 mps 750 mmHg 45%
04:00 +15°C° 0 mm 2 mps 750 mmHg 46%
05:00 +15°C° 0 mm 2 mps 750 mmHg 47%
06:00 +16°C° 0 mm 2 mps 750 mmHg 46%
07:00 +17°C° 0 mm 2 mps 750 mmHg 44%
08:00 +18°C° 0 mm 2 mps 750 mmHg 42%
09:00 +20°C° 0 mm 3 mps 750 mmHg 38%
10:00 +24°C° 0 mm 3 mps 750 mmHg 34%
11:00 +26°C° 0 mm 3 mps 749 mmHg 30%
12:00 +27°C° 0 mm 4 mps 749 mmHg 29%
13:00 +28°C° 0 mm 4 mps 749 mmHg 28%
14:00 +28°C° 0 mm 4 mps 748 mmHg 27%
15:00 +27°C° 0 mm 3 mps 748 mmHg 32%
16:00 +26°C° 0 mm 3 mps 747 mmHg 37%
17:00 +24°C° 0 mm 3 mps 747 mmHg 42%
18:00 +22°C° 0 mm 3 mps 747 mmHg 44%
19:00 +21°C° 0 mm 3 mps 746 mmHg 47%
20:00 +19°C° 0 mm 3 mps 746 mmHg 50%
21:00 +19°C° 0 mm 3 mps 746 mmHg 51%
22:00 +19°C° 0 mm 4 mps 746 mmHg 53%
23:00 +18°C° 0 mm 4 mps 745 mmHg 55%
Show more